����,���ϕ���(m/s),���ϕ���,�ő�u�ԕ���(m/s),�ő啗��������,�C��(��),���x(%),10���Ԉړ��ώZ�J��(mm),1���Ԉړ��ώZ�J��(mm),���J��(mm),�݌v�J��(mm),����(���ώZ)(MJ/m2),����(���ώZ)(min),���n�C��(hPa),�C�ʋC��(hPa)
2022-09-26T00:00:00+09:00,1.1,�k�k��,1.6,�k�k��,18.3,89.4,0,0,0,0,19.22,558,1003.7,1017.4
2022-09-26T00:01:00+09:00,1,�k��,1.4,�k��,18.4,89.6,0,0,0,0,0,0,1003.7,1017.4
2022-09-26T00:02:00+09:00,1,�k��,1.4,�k��,18.4,89.9,0,0,0,0,0,0,1003.7,1017.4
2022-09-26T00:03:00+09:00,1,�k��,1.5,�k�k��,18.6,90.1,0,0,0,0,0,0,1003.7,1017.4
2022-09-26T00:04:00+09:00,1,�k��,1.5,�k�k��,18.6,90.2,0,0,0,0,0,0,1003.7,1017.4
2022-09-26T00:05:00+09:00,1,�k��,1.5,�k�k��,18.4,89.3,0,0,0,0,0,0,1003.7,1017.4
2022-09-26T00:06:00+09:00,0.9,�k��,1.5,�k�k��,18.4,88.9,0,0,0,0,0,0,1003.8,1017.5
2022-09-26T00:07:00+09:00,0.9,�k�k��,1.5,�k�k��,18.5,89.7,0,0,0,0,0,0,1003.8,1017.5
2022-09-26T00:08:00+09:00,0.9,�k�k��,1.5,�k�k��,18.3,89.5,0,0,0,0,0,0,1003.8,1017.5
2022-09-26T00:09:00+09:00,0.9,�k�k��,1.5,�k�k��,18.4,89.5,0,0,0,0,0,0,1003.8,1017.5
2022-09-26T00:10:00+09:00,0.9,�k�k��,1.5,�k�k��,18.4,89.8,0,0,0,0,0,0,1003.8,1017.5
2022-09-26T00:11:00+09:00,0.9,�k�k��,1.5,�k�k��,18.3,89.8,0,0,0,0,0,0,1003.8,1017.5
2022-09-26T00:12:00+09:00,1,�k�k��,1.5,�k�k��,18.2,89.4,0,0,0,0,0,0,1003.8,1017.5
2022-09-26T00:13:00+09:00,0.9,�k�k��,1.5,�k��,18.3,90.1,0,0,0,0,0,0,1003.8,1017.5
2022-09-26T00:14:00+09:00,0.9,�k�k��,1.5,�k��,18.5,91,0,0,0,0,0,0,1003.9,1017.6
2022-09-26T00:15:00+09:00,0.9,�k�k��,1.5,�k��,18.3,90.5,0,0,0,0,0,0,1003.9,1017.6
2022-09-26T00:16:00+09:00,1,�k�k��,2,�k�k��,18.4,90.4,0,0,0,0,0,0,1003.9,1017.6
2022-09-26T00:17:00+09:00,1.1,�k�k��,2,�k�k��,18.6,91.1,0,0,0,0,0,0,1003.9,1017.6
2022-09-26T00:18:00+09:00,1.2,�k�k��,2.2,�k��,18.4,90,0,0,0,0,0,0,1003.9,1017.6
2022-09-26T00:19:00+09:00,1.3,�k�k��,2.2,�k��,18.3,89.8,0,0,0,0,0,0,1003.9,1017.6
2022-09-26T00:20:00+09:00,1.3,�k�k��,2.2,�k��,18.4,90.1,0,0,0,0,0,0,1003.9,1017.6
2022-09-26T00:21:00+09:00,1.3,�k�k��,2.2,�k��,18.4,90.3,0,0,0,0,0,0,1003.9,1017.6
2022-09-26T00:22:00+09:00,1.3,�k�k��,2.2,�k��,18.4,90.4,0,0,0,0,0,0,1003.8,1017.5
2022-09-26T00:23:00+09:00,1.3,�k�k��,2.2,�k��,18.3,90.2,0,0,0,0,0,0,1003.8,1017.5
2022-09-26T00:24:00+09:00,1.3,�k�k��,2.2,�k��,18.7,90.9,0,0,0,0,0,0,1003.7,1017.4
2022-09-26T00:25:00+09:00,1.3,�k�k��,2.2,�k��,18.5,90.6,0,0,0,0,0,0,1003.7,1017.4
2022-09-26T00:26:00+09:00,1.3,�k�k��,2.2,�k��,18.6,90.3,0,0,0,0,0,0,1003.8,1017.5
2022-09-26T00:27:00+09:00,1.2,�k��,2.2,�k��,18.6,90.1,0,0,0,0,0,0,1003.8,1017.5
2022-09-26T00:28:00+09:00,1.1,�k��,2,�k��,18.3,89.2,0,0,0,0,0,0,1003.8,1017.5
2022-09-26T00:29:00+09:00,1,�k��,2,�k��,18.3,89,0,0,0,0,0,0,1003.8,1017.5
2022-09-26T00:30:00+09:00,0.9,�k�k��,1.8,�k��,18.4,89.5,0,0,0,0,0,0,1003.8,1017.5
2022-09-26T00:31:00+09:00,0.9,�k�k��,1.8,�k��,18.2,89.3,0,0,0,0,0,0,1003.8,1017.5
2022-09-26T00:32:00+09:00,0.8,�k�k��,1.8,�k��,18.2,89.6,0,0,0,0,0,0,1003.8,1017.5
2022-09-26T00:33:00+09:00,0.7,�k�k��,1.6,�k�k��,18.2,89.7,0,0,0,0,0,0,1003.9,1017.6
2022-09-26T00:34:00+09:00,0.7,�k�k��,1.7,�k�k��,18.1,90.4,0,0,0,0,0,0,1003.9,1017.6
2022-09-26T00:35:00+09:00,0.8,�k�k��,1.7,�k�k��,18,90.1,0,0,0,0,0,0,1003.9,1017.6
2022-09-26T00:36:00+09:00,0.8,�k�k��,1.7,�k�k��,18.2,90.9,0,0,0,0,0,0,1003.9,1017.6
2022-09-26T00:37:00+09:00,0.8,�k,1.7,�k�k��,18.2,91.3,0,0,0,0,0,0,1003.9,1017.6
2022-09-26T00:38:00+09:00,0.9,�k,1.7,�k�k��,18.2,91,0,0,0,0,0,0,1003.9,1017.6
2022-09-26T00:39:00+09:00,0.9,�k,1.7,�k�k��,18.2,91.1,0,0,0,0,0,0,1003.9,1017.6
2022-09-26T00:40:00+09:00,1,�k,1.9,�k�k��,18.3,91.5,0,0,0,0,0,0,1003.9,1017.6
2022-09-26T00:41:00+09:00,1.1,�k�k��,2.2,�k�k��,18.3,91.6,0,0,0,0,0,0,1003.9,1017.6
2022-09-26T00:42:00+09:00,1.2,�k�k��,2.2,�k�k��,18.4,91.5,0,0,0,0,0,0,1003.9,1017.6
2022-09-26T00:43:00+09:00,1.3,�k�k��,2.2,�k�k��,18.5,91.4,0,0,0,0,0,0,1003.9,1017.6
2022-09-26T00:44:00+09:00,1.3,�k�k��,2.2,�k�k��,18.4,91,0,0,0,0,0,0,1003.9,1017.6
2022-09-26T00:45:00+09:00,1.3,�k�k��,2.2,�k�k��,18.3,90.6,0,0,0,0,0,0,1004,1017.7
2022-09-26T00:46:00+09:00,1.2,�k�k��,2.2,�k�k��,18.3,90,0,0,0,0,0,0,1003.9,1017.6
2022-09-26T00:47:00+09:00,1.2,�k,2.2,�k�k��,18.4,90.3,0,0,0,0,0,0,1003.9,1017.6
2022-09-26T00:48:00+09:00,1.1,�k,2.2,�k�k��,18.4,90.4,0,0,0,0,0,0,1003.9,1017.6
2022-09-26T00:49:00+09:00,1,�k,2.2,�k�k��,18.3,90.2,0,0,0,0,0,0,1004,1017.7
2022-09-26T00:50:00+09:00,1,�k,2.2,�k�k��,18.3,90,0,0,0,0,0,0,1004,1017.7
2022-09-26T00:51:00+09:00,0.8,�k,2.1,�k�k��,18.3,90.3,0,0,0,0,0,0,1004,1017.7
2022-09-26T00:52:00+09:00,0.7,�k�k��,2,�k��,18.3,90.2,0,0,0,0,0,0,1004,1017.7
2022-09-26T00:53:00+09:00,0.6,�k�k��,2,�k��,18.3,90.1,0,0,0,0,0,0,1004,1017.7
2022-09-26T00:54:00+09:00,0.6,�k�k��,2,�k��,18.2,90.2,0,0,0,0,0,0,1004,1017.7
2022-09-26T00:55:00+09:00,0.5,�k�k��,2,�k��,18.1,90.1,0,0,0,0,0,0,1004,1017.7
2022-09-26T00:56:00+09:00,0.5,�k,1.1,�k��,18.2,90.6,0,0,0,0,0,0,1004,1017.7
2022-09-26T00:57:00+09:00,0.4,�k,1.1,�k��,18.4,91.3,0,0,0,0,0,0,1003.9,1017.6
2022-09-26T00:58:00+09:00,0.4,�k,1.1,�k��,18.2,90.9,0,0,0,0,0,0,1003.9,1017.6
2022-09-26T00:59:00+09:00,0.4,�k�k��,1.1,�k��,18.2,90.6,0,0,0,0,0,0,1003.9,1017.6
2022-09-26T01:00:00+09:00,0.3,�k��,1,�k��,18.1,90.9,0,0,0,0,0,0,1003.9,1017.6
2022-09-26T01:01:00+09:00,0.3,�k��,0.9,�k,18,90.6,0,0,0,0,0,0,1004,1017.7
2022-09-26T01:02:00+09:00,0.3,���k��,0.8,���k��,17.9,90.8,0,0,0,0,0,0,1004,1017.7
2022-09-26T01:03:00+09:00,0.2,�É�,0.8,���k��,18,91.2,0,0,0,0,0,0,1004,1017.7
2022-09-26T01:04:00+09:00,0.2,�É�,0.8,���k��,18,91.7,0,0,0,0,0,0,1004,1017.7
2022-09-26T01:05:00+09:00,0.2,�É�,0.8,���k��,18.1,92.2,0,0,0,0,0,0,1004.1,1017.8
2022-09-26T01:06:00+09:00,0.2,�É�,0.8,���k��,18.1,92.6,0,0,0,0,0,0,1004.1,1017.8
2022-09-26T01:07:00+09:00,0.2,�É�,0.8,���k��,18,92.1,0,0,0,0,0,0,1004.1,1017.8
2022-09-26T01:08:00+09:00,0.2,�É�,0.7,�k��,17.9,91.9,0,0,0,0,0,0,1004.1,1017.8
2022-09-26T01:09:00+09:00,0.2,�É�,0.9,��,18,91.9,0,0,0,0,0,0,1004.1,1017.8
2022-09-26T01:10:00+09:00,0.3,�k�k��,0.9,��,18.1,92.4,0,0,0,0,0,0,1004.1,1017.8
2022-09-26T01:11:00+09:00,0.4,�k��,0.9,��,18.1,92.9,0,0,0,0,0,0,1004.1,1017.8
2022-09-26T01:12:00+09:00,0.4,�k��,0.9,��,18.1,92.5,0,0,0,0,0,0,1004.1,1017.8
2022-09-26T01:13:00+09:00,0.5,���k��,1,��,18.1,92.2,0,0,0,0,0,0,1004.1,1017.8
2022-09-26T01:14:00+09:00,0.6,���k��,1,��,18,92.1,0,0,0,0,0,0,1004,1017.7
2022-09-26T01:15:00+09:00,0.6,���k��,1,��,18,92.1,0,0,0,0,0,0,1004,1017.7
2022-09-26T01:16:00+09:00,0.6,��,1,��,18,92,0,0,0,0,0,0,1004,1017.7
2022-09-26T01:17:00+09:00,0.7,��,1,��,18,92,0,0,0,0,0,0,1004,1017.7
2022-09-26T01:18:00+09:00,0.7,��,1.1,���쐼,18,92.2,0,0,0,0,0,0,1004,1017.7
2022-09-26T01:19:00+09:00,0.7,��,1.1,���쐼,18,92.4,0,0,0,0,0,0,1004,1017.7
2022-09-26T01:20:00+09:00,0.7,��,1.1,���쐼,17.9,92.2,0,0,0,0,0,0,1004,1017.7
2022-09-26T01:21:00+09:00,0.7,��,1.2,���k��,17.9,92.2,0,0,0,0,0,0,1004,1017.7
2022-09-26T01:22:00+09:00,0.7,��,1.2,���k��,17.9,92.2,0,0,0,0,0,0,1004,1017.7
2022-09-26T01:23:00+09:00,0.7,��,1.2,���k��,17.9,92.5,0,0,0,0,0,0,1003.9,1017.6
2022-09-26T01:24:00+09:00,0.8,��,1.2,���k��,17.9,92.5,0,0,0,0,0,0,1003.9,1017.6
2022-09-26T01:25:00+09:00,0.8,��,1.2,���k��,17.9,92.6,0,0,0,0,0,0,1003.9,1017.6
2022-09-26T01:26:00+09:00,0.8,��,1.2,���k��,17.9,92.7,0,0,0,0,0,0,1003.9,1017.6
2022-09-26T01:27:00+09:00,0.7,��,1.2,���k��,18,92.8,0,0,0,0,0,0,1003.9,1017.6
2022-09-26T01:28:00+09:00,0.7,��,1.2,���k��,17.9,92.7,0,0,0,0,0,0,1003.9,1017.6
2022-09-26T01:29:00+09:00,0.6,��,1.2,���k��,17.8,92.6,0,0,0,0,0,0,1003.9,1017.6
2022-09-26T01:30:00+09:00,0.6,���쐼,1.2,���k��,17.8,92.3,0,0,0,0,0,0,1003.8,1017.5
2022-09-26T01:31:00+09:00,0.5,���쐼,1.2,��,17.8,92.7,0,0,0,0,0,0,1003.8,1017.5
2022-09-26T01:32:00+09:00,0.5,�쐼,1.1,��,17.8,92.7,0,0,0,0,0,0,1003.8,1017.5
2022-09-26T01:33:00+09:00,0.4,�쐼,1,��,17.8,92.9,0,0,0,0,0,0,1003.8,1017.5
2022-09-26T01:34:00+09:00,0.3,��쐼,0.9,���쐼,17.9,93.1,0,0,0,0,0,0,1003.8,1017.5
2022-09-26T01:35:00+09:00,0.3,��쐼,0.9,���쐼,18.1,93.8,0,0,0,0,0,0,1003.8,1017.5
2022-09-26T01:36:00+09:00,0.2,�É�,0.9,�쐼,18.3,94,0,0,0,0,0,0,1003.8,1017.5
2022-09-26T01:37:00+09:00,0.2,�É�,0.9,�쐼,18.2,93.4,0,0,0,0,0,0,1003.9,1017.6
2022-09-26T01:38:00+09:00,0.2,�É�,0.9,�쐼,17.8,91.6,0,0,0,0,0,0,1003.9,1017.6
2022-09-26T01:39:00+09:00,0.3,��쐼,0.9,�쐼,17.7,91,0,0,0,0,0,0,1003.9,1017.6
2022-09-26T01:40:00+09:00,0.3,��쐼,0.9,�쐼,17.6,91.5,0,0,0,0,0,0,1003.9,1017.6
2022-09-26T01:41:00+09:00,0.2,�É�,0.9,�쐼,17.6,92,0,0,0,0,0,0,1003.9,1017.6
2022-09-26T01:42:00+09:00,0.2,�É�,0.9,�쐼,17.5,92.5,0,0,0,0,0,0,1003.8,1017.6
2022-09-26T01:43:00+09:00,0.2,�É�,0.9,�쐼,17.6,93.2,0,0,0,0,0,0,1003.8,1017.5
2022-09-26T01:44:00+09:00,0.2,�É�,0.9,�쐼,17.8,94.2,0,0,0,0,0,0,1003.8,1017.5
2022-09-26T01:45:00+09:00,0.2,�É�,0.9,�쐼,18,94.7,0,0,0,0,0,0,1003.8,1017.5
2022-09-26T01:46:00+09:00,0.2,�É�,0.8,��,18.1,94.7,0,0,0,0,0,0,1003.7,1017.4
2022-09-26T01:47:00+09:00,0.2,�É�,0.8,��,18,94,0,0,0,0,0,0,1003.8,1017.5
2022-09-26T01:48:00+09:00,0.2,�É�,1,��,17.8,93.1,0,0,0,0,0,0,1003.8,1017.5
2022-09-26T01:49:00+09:00,0.2,�É�,1,��,17.8,92.7,0,0,0,0,0,0,1003.8,1017.5
2022-09-26T01:50:00+09:00,0.3,��,1.2,��,17.9,92.8,0,0,0,0,0,0,1003.8,1017.5
2022-09-26T01:51:00+09:00,0.4,��,1.2,��,17.9,93,0,0,0,0,0,0,1003.8,1017.5
2022-09-26T01:52:00+09:00,0.5,��,1.4,��,17.9,93,0,0,0,0,0,0,1003.8,1017.5
2022-09-26T01:53:00+09:00,0.6,��,1.4,��,18,92.8,0,0,0,0,0,0,1003.8,1017.5
2022-09-26T01:54:00+09:00,0.7,��,1.4,��,17.9,92.9,0,0,0,0,0,0,1003.8,1017.5
2022-09-26T01:55:00+09:00,0.8,���k��,1.4,��,18,92.7,0,0,0,0,0,0,1003.8,1017.5
2022-09-26T01:56:00+09:00,0.8,��,1.4,��,17.9,92.5,0,0,0,0,0,0,1003.8,1017.5
2022-09-26T01:57:00+09:00,0.9,��,1.4,��,17.8,92.3,0,0,0,0,0,0,1003.8,1017.5
2022-09-26T01:58:00+09:00,0.9,��,1.4,��,17.7,92.1,0,0,0,0,0,0,1003.8,1017.5
2022-09-26T01:59:00+09:00,0.9,��,1.4,��,17.6,91.8,0,0,0,0,0,0,1003.8,1017.5
2022-09-26T02:00:00+09:00,0.8,��,1.4,��,17.7,92.7,0,0,0,0,0,0,1003.8,1017.5
2022-09-26T02:01:00+09:00,0.8,��,1.4,��,17.5,92.5,0,0,0,0,0,0,1003.8,1017.6
2022-09-26T02:02:00+09:00,0.8,��,1.2,��,17.8,93.5,0,0,0,0,0,0,1003.8,1017.5
2022-09-26T02:03:00+09:00,0.8,��,1.1,��,17.7,93.9,0,0,0,0,0,0,1003.8,1017.5
2022-09-26T02:04:00+09:00,0.7,��,1.1,��,17.7,93.8,0,0,0,0,0,0,1003.8,1017.5
2022-09-26T02:05:00+09:00,0.7,��,1.2,���쐼,17.6,93.7,0,0,0,0,0,0,1003.8,1017.5
2022-09-26T02:06:00+09:00,0.7,��,1.2,���쐼,17.6,94,0,0,0,0,0,0,1003.8,1017.5
2022-09-26T02:07:00+09:00,0.7,��,1.2,���쐼,17.6,93.6,0,0,0,0,0,0,1003.8,1017.5
2022-09-26T02:08:00+09:00,0.7,��,1.2,���쐼,17.8,94.4,0,0,0,0,0,0,1003.8,1017.5
2022-09-26T02:09:00+09:00,0.6,��,1.2,���쐼,17.9,94.5,0,0,0,0,0,0,1003.8,1017.5
2022-09-26T02:10:00+09:00,0.6,��,1.2,���쐼,17.9,94.3,0,0,0,0,0,0,1003.8,1017.5
2022-09-26T02:11:00+09:00,0.5,��,1.2,���쐼,17.9,93.9,0,0,0,0,0,0,1003.8,1017.5
2022-09-26T02:12:00+09:00,0.5,��,1.2,���쐼,17.8,93.4,0,0,0,0,0,0,1003.8,1017.5
2022-09-26T02:13:00+09:00,0.5,��,1.2,���쐼,17.7,92.9,0,0,0,0,0,0,1003.8,1017.5
2022-09-26T02:14:00+09:00,0.5,��,1.4,�k��,17.7,93,0,0,0,0,0,0,1003.8,1017.5
2022-09-26T02:15:00+09:00,0.6,��,1.5,���k��,18,93.7,0,0,0,0,0,0,1003.8,1017.5
2022-09-26T02:16:00+09:00,0.6,��,2,��,17.8,93.6,0,0,0,0,0,0,1003.8,1017.5
2022-09-26T02:17:00+09:00,0.7,��,2,��,17.7,92.7,0,0,0,0,0,0,1003.8,1017.5
2022-09-26T02:18:00+09:00,0.9,��,2,��,17.6,92.4,0,0,0,0,0,0,1003.8,1017.5
2022-09-26T02:19:00+09:00,1,��,2,��,17.4,92.5,0,0,0,0,0,0,1003.9,1017.7
2022-09-26T02:20:00+09:00,1.1,��,2,��,17.3,92.7,0,0,0,0,0,0,1003.8,1017.6
2022-09-26T02:21:00+09:00,1.1,��,2,��,17.4,93.4,0,0,0,0,0,0,1003.8,1017.6
2022-09-26T02:22:00+09:00,1.1,��,2,��,17.3,94.1,0,0,0,0,0,0,1003.8,1017.6
2022-09-26T02:23:00+09:00,1.1,��,2,��,17.5,94.5,0,0,0,0,0,0,1003.8,1017.6
2022-09-26T02:24:00+09:00,1.2,��,2,��,17.6,95.3,0,0,0,0,0,0,1003.8,1017.5
2022-09-26T02:25:00+09:00,1.2,��,2,��,17.8,95.4,0,0,0,0,0,0,1003.8,1017.5
2022-09-26T02:26:00+09:00,1.2,��,1.8,��,17.8,95.4,0,0,0,0,0,0,1003.9,1017.6
2022-09-26T02:27:00+09:00,1.1,��,1.7,���k��,17.6,94.5,0,0,0,0,0,0,1003.9,1017.6
2022-09-26T02:28:00+09:00,1.2,��,2.2,��,17.5,93.9,0,0,0,0,0,0,1003.9,1017.7
2022-09-26T02:29:00+09:00,1.2,��,2.2,��,17.4,93.5,0,0,0,0,0,0,1003.9,1017.7
2022-09-26T02:30:00+09:00,1.1,��,2.2,��,17.2,93.5,0,0,0,0,0,0,1003.9,1017.7
2022-09-26T02:31:00+09:00,1.2,��,2.2,��,17.3,94,0,0,0,0,0,0,1003.9,1017.7
2022-09-26T02:32:00+09:00,1.2,��,2.2,��,17.3,94.8,0,0,0,0,0,0,1003.9,1017.7
2022-09-26T02:33:00+09:00,1.1,��,2.2,��,17.2,95,0,0,0,0,0,0,1003.9,1017.7
2022-09-26T02:34:00+09:00,1.1,��,2.2,��,17.3,95.3,0,0,0,0,0,0,1003.8,1017.6
2022-09-26T02:35:00+09:00,1.1,��,2.2,��,17.3,95.5,0,0,0,0,0,0,1003.8,1017.6
2022-09-26T02:36:00+09:00,1,��,2.2,��,17.6,95.8,0,0,0,0,0,0,1003.9,1017.6
2022-09-26T02:37:00+09:00,1,��,2.2,��,17.5,95.7,0,0,0,0,0,0,1003.9,1017.7
2022-09-26T02:38:00+09:00,1,��,2.1,��,17.5,95.7,0,0,0,0,0,0,1003.9,1017.7
2022-09-26T02:39:00+09:00,1.1,��,2.1,��,17.5,95.6,0,0,0,0,0,0,1003.9,1017.7
2022-09-26T02:40:00+09:00,1.1,��,2.1,��,17.4,95.3,0,0,0,0,0,0,1003.9,1017.7
2022-09-26T02:41:00+09:00,1.1,��,2.1,��,17.3,95,0,0,0,0,0,0,1003.9,1017.7
2022-09-26T02:42:00+09:00,1.2,��,2.1,��,17.3,95.2,0,0,0,0,0,0,1003.9,1017.7
2022-09-26T02:43:00+09:00,1.3,��,2.1,��,17.2,95,0,0,0,0,0,0,1003.9,1017.7
2022-09-26T02:44:00+09:00,1.4,��,2.1,��,17.5,95.6,0,0,0,0,0,0,1003.9,1017.7
2022-09-26T02:45:00+09:00,1.4,��,2.1,��,17.3,95.6,0,0,0,0,0,0,1003.9,1017.7
2022-09-26T02:46:00+09:00,1.4,��,2.1,��,17.2,95.3,0,0,0,0,0,0,1003.9,1017.7
2022-09-26T02:47:00+09:00,1.4,��,2.1,��,17.2,95.4,0,0,0,0,0,0,1003.9,1017.7
2022-09-26T02:48:00+09:00,1.3,��,1.9,��,17.4,95.7,0,0,0,0,0,0,1003.9,1017.7
2022-09-26T02:49:00+09:00,1.3,��,1.9,��,17.4,95.7,0,0,0,0,0,0,1003.9,1017.7
2022-09-26T02:50:00+09:00,1.2,��,1.9,��,17.4,95.6,0,0,0,0,0,0,1003.9,1017.7
2022-09-26T02:51:00+09:00,1.2,��,1.9,��,17.4,95.6,0,0,0,0,0,0,1003.9,1017.7
2022-09-26T02:52:00+09:00,1.1,��,1.9,��,17.6,95.7,0,0,0,0,0,0,1003.9,1017.6
2022-09-26T02:53:00+09:00,1,��,1.8,��,17.6,95.7,0,0,0,0,0,0,1003.9,1017.6
2022-09-26T02:54:00+09:00,1,��,1.5,��,17.7,95.6,0,0,0,0,0,0,1003.9,1017.6
2022-09-26T02:55:00+09:00,0.9,��,1.5,��,17.6,95.3,0,0,0,0,0,0,1003.9,1017.6
2022-09-26T02:56:00+09:00,0.8,��,1.5,��,17.6,95.2,0,0,0,0,0,0,1003.9,1017.6
2022-09-26T02:57:00+09:00,0.7,��,1.5,��,17.6,94.9,0,0,0,0,0,0,1003.9,1017.6
2022-09-26T02:58:00+09:00,0.7,��,1.3,��,17.5,94.7,0,0,0,0,0,0,1003.9,1017.7
2022-09-26T02:59:00+09:00,0.6,���k��,1.2,��,17.6,94.4,0,0,0,0,0,0,1003.9,1017.6
2022-09-26T03:00:00+09:00,0.6,���k��,1.2,��,17.8,95,0,0,0,0,0,0,1003.9,1017.6
2022-09-26T03:01:00+09:00,0.5,���k��,1.2,��,17.7,94.6,0,0,0,0,0,0,1003.9,1017.6
2022-09-26T03:02:00+09:00,0.5,���k��,1.2,�k��,17.7,94.4,0,0,0,0,0,0,1004,1017.7
2022-09-26T03:03:00+09:00,0.5,���k��,1.2,�k��,17.7,94.3,0,0,0,0,0,0,1004,1017.7
2022-09-26T03:04:00+09:00,0.5,���k��,1.2,�k��,17.6,94.1,0,0,0,0,0,0,1004,1017.8
2022-09-26T03:05:00+09:00,0.6,���k��,1.2,�k��,17.7,94.2,0,0,0,0,0,0,1004,1017.7
2022-09-26T03:06:00+09:00,0.6,�k��,1.2,�k��,17.7,94.2,0,0,0,0,0,0,1004,1017.7
2022-09-26T03:07:00+09:00,0.6,�k��,1.2,�k��,17.7,94.1,0,0,0,0,0,0,1004,1017.7
2022-09-26T03:08:00+09:00,0.6,�k��,1.2,�k��,17.6,94,0,0,0,0,0,0,1003.9,1017.6
2022-09-26T03:09:00+09:00,0.7,�k��,1.2,�k��,17.6,93.9,0,0,0,0,0,0,1003.9,1017.6
2022-09-26T03:10:00+09:00,0.7,�k�k��,1.2,�k��,17.6,94.2,0,0,0,0,0,0,1003.9,1017.6
2022-09-26T03:11:00+09:00,0.7,�k�k��,1.2,�k,17.6,94.3,0,0,0,0,0,0,1003.9,1017.6
2022-09-26T03:12:00+09:00,0.7,�k�k��,1.2,�k,17.5,94.3,0,0,0,0,0,0,1003.9,1017.7
2022-09-26T03:13:00+09:00,0.7,�k,1.2,�k,17.5,94.3,0,0,0,0,0,0,1003.9,1017.7
2022-09-26T03:14:00+09:00,0.7,�k,1.2,�k,17.4,94.2,0,0,0,0,0,0,1003.9,1017.7
2022-09-26T03:15:00+09:00,0.7,�k,1.2,�k,17.4,94.5,0,0,0,0,0,0,1003.8,1017.6
2022-09-26T03:16:00+09:00,0.7,�k�k��,1.2,�k,17.4,94.7,0,0,0,0,0,0,1003.8,1017.6
2022-09-26T03:17:00+09:00,0.7,�k�k��,1.2,�k,17.4,94.7,0,0,0,0,0,0,1003.8,1017.6
2022-09-26T03:18:00+09:00,0.7,�k�k��,1.2,�k,17.4,95.1,0,0,0,0,0,0,1003.7,1017.5
2022-09-26T03:19:00+09:00,0.7,�k�k��,1.1,�k��,17.5,95.3,0,0,0,0,0,0,1003.7,1017.5
2022-09-26T03:20:00+09:00,0.6,�k�k��,1.1,�k��,17.5,95.3,0,0,0,0,0,0,1003.7,1017.5
2022-09-26T03:21:00+09:00,0.5,�k�k��,1,�k�k��,17.5,95.3,0,0,0,0,0,0,1003.7,1017.5
2022-09-26T03:22:00+09:00,0.5,�k�k��,1,�k�k��,17.4,95.3,0,0,0,0,0,0,1003.7,1017.5
2022-09-26T03:23:00+09:00,0.4,�k��,1,�k�k��,17.6,95.3,0,0,0,0,0,0,1003.7,1017.4
2022-09-26T03:24:00+09:00,0.4,�k�k��,0.9,�k��,17.5,95.3,0,0,0,0,0,0,1003.7,1017.5
2022-09-26T03:25:00+09:00,0.3,�k�k��,0.9,�k��,17.3,94.9,0,0,0,0,0,0,1003.7,1017.5
2022-09-26T03:26:00+09:00,0.3,�k�k��,0.8,�k��,17.4,95.1,0,0,0,0,0,0,1003.7,1017.5
2022-09-26T03:27:00+09:00,0.2,�É�,0.6,�k��,17.4,95.3,0,0,0,0,0,0,1003.7,1017.5
2022-09-26T03:28:00+09:00,0.2,�É�,0.5,�k,17.4,95.3,0,0,0,0,0,0,1003.7,1017.5
2022-09-26T03:29:00+09:00,0.1,�É�,0.5,�k,17.4,95.4,0,0,0,0,0,0,1003.7,1017.5
2022-09-26T03:30:00+09:00,0.1,�É�,0.5,�k,17.2,95.2,0,0,0,0,0,0,1003.7,1017.5
2022-09-26T03:31:00+09:00,0.2,�É�,0.6,���k��,17.2,95.2,0,0,0,0,0,0,1003.7,1017.5
2022-09-26T03:32:00+09:00,0.2,�É�,0.9,��,17.3,95.5,0,0,0,0,0,0,1003.6,1017.4
2022-09-26T03:33:00+09:00,0.2,�É�,0.9,��,17.4,95.6,0,0,0,0,0,0,1003.6,1017.4
2022-09-26T03:34:00+09:00,0.2,�É�,0.9,��,17.4,95.6,0,0,0,0,0,0,1003.6,1017.4
2022-09-26T03:35:00+09:00,0.2,�É�,0.9,��,17.3,95.4,0,0,0,0,0,0,1003.6,1017.4
2022-09-26T03:36:00+09:00,0.3,���k��,1,��,17.3,95.5,0,0,0,0,0,0,1003.6,1017.4
2022-09-26T03:37:00+09:00,0.3,���k��,1,��,17.3,95.6,0,0,0,0,0,0,1003.6,1017.4
2022-09-26T03:38:00+09:00,0.4,���k��,1,��,17.3,95.6,0,0,0,0,0,0,1003.6,1017.4
2022-09-26T03:39:00+09:00,0.4,��,1,��,17.3,95.5,0,0,0,0,0,0,1003.6,1017.4
2022-09-26T03:40:00+09:00,0.5,��,1,��,17.3,95.6,0,0,0,0,0,0,1003.6,1017.4
2022-09-26T03:41:00+09:00,0.5,��,1,��,17.3,95.6,0,0,0,0,0,0,1003.6,1017.4
2022-09-26T03:42:00+09:00,0.4,���k��,1,��,17.4,95.6,0,0,0,0,0,0,1003.7,1017.5
2022-09-26T03:43:00+09:00,0.4,���k��,1,��,17.4,95.6,0,0,0,0,0,0,1003.7,1017.5
2022-09-26T03:44:00+09:00,0.4,���k��,1,��,17.4,95.7,0,0,0,0,0,0,1003.6,1017.4
2022-09-26T03:45:00+09:00,0.4,���k��,1,��,17.3,95.5,0,0,0,0,0,0,1003.6,1017.4
2022-09-26T03:46:00+09:00,0.4,���k��,0.8,��,17.1,95.2,0,0,0,0,0,0,1003.6,1017.4
2022-09-26T03:47:00+09:00,0.4,���k��,0.8,��,17.2,95.2,0,0,0,0,0,0,1003.6,1017.4
2022-09-26T03:48:00+09:00,0.3,���k��,0.8,��,17.1,95.4,0,0,0,0,0,0,1003.6,1017.4
2022-09-26T03:49:00+09:00,0.3,�k��,0.8,��,17.1,95.3,0,0,0,0,0,0,1003.6,1017.4
2022-09-26T03:50:00+09:00,0.3,�k��,0.8,��,17.1,95.4,0,0,0,0,0,0,1003.7,1017.5
2022-09-26T03:51:00+09:00,0.3,�k��,0.8,��,17,95.5,0,0,0,0,0,0,1003.7,1017.5
2022-09-26T03:52:00+09:00,0.3,�k��,0.8,��,17.2,95.6,0,0,0,0,0,0,1003.7,1017.5
2022-09-26T03:53:00+09:00,0.4,�k��,0.8,��,17.2,95.8,0,0,0,0,0,0,1003.7,1017.5
2022-09-26T03:54:00+09:00,0.4,�k��,0.8,��,17.2,96,0,0,0,0,0,0,1003.7,1017.5
2022-09-26T03:55:00+09:00,0.3,�k��,0.9,���k��,17.1,95.7,0,0,0,0,0,0,1003.7,1017.5
2022-09-26T03:56:00+09:00,0.4,�k��,1,���k��,17,95.6,0,0,0,0,0,0,1003.7,1017.5
2022-09-26T03:57:00+09:00,0.4,�k��,1,���k��,17.1,95.7,0,0,0,0,0,0,1003.7,1017.5
2022-09-26T03:58:00+09:00,0.4,�k��,1,���k��,17.1,95.8,0,0,0,0,0,0,1003.7,1017.5
2022-09-26T03:59:00+09:00,0.4,�k��,1,���k��,17.1,95.9,0,0,0,0,0,0,1003.7,1017.5
2022-09-26T04:00:00+09:00,0.5,�k��,1.2,�k��,17.2,95.9,0,0,0,0,0,0,1003.7,1017.5
2022-09-26T04:01:00+09:00,0.5,�k��,1.2,�k��,17.2,95.9,0,0,0,0,0,0,1003.7,1017.5
2022-09-26T04:02:00+09:00,0.5,�k��,1.2,�k��,17.3,95.9,0,0,0,0,0,0,1003.7,1017.5
2022-09-26T04:03:00+09:00,0.6,�k��,1.2,�k��,17.3,95.9,0,0,0,0,0,0,1003.7,1017.5
2022-09-26T04:04:00+09:00,0.6,�k��,1.2,�k��,17.2,95.9,0,0,0,0,0,0,1003.7,1017.5
2022-09-26T04:05:00+09:00,0.6,�k�k��,1.2,�k��,17.1,95.5,0,0,0,0,0,0,1003.7,1017.5
2022-09-26T04:06:00+09:00,0.6,�k�k��,1.2,�k��,17.1,95.4,0,0,0,0,0,0,1003.7,1017.5
2022-09-26T04:07:00+09:00,0.6,�k�k��,1.2,�k��,17,95.2,0,0,0,0,0,0,1003.7,1017.5
2022-09-26T04:08:00+09:00,0.6,�k�k��,1.2,�k��,17,95.3,0,0,0,0,0,0,1003.7,1017.5
2022-09-26T04:09:00+09:00,0.6,�k�k��,1.2,�k��,17.1,95.6,0,0,0,0,0,0,1003.7,1017.5
2022-09-26T04:10:00+09:00,0.7,�k�k��,1.2,�k�k��,17.1,95.8,0,0,0,0,0,0,1003.8,1017.6
2022-09-26T04:11:00+09:00,0.6,�k,1.2,�k�k��,17.2,95.8,0,0,0,0,0,0,1003.8,1017.6
2022-09-26T04:12:00+09:00,0.6,�k,1.2,�k�k��,17.1,95.8,0,0,0,0,0,0,1003.8,1017.6
2022-09-26T04:13:00+09:00,0.6,�k,1.2,�k�k��,17.1,95.7,0,0,0,0,0,0,1003.8,1017.6
2022-09-26T04:14:00+09:00,0.6,�k,1.2,�k�k��,17,95.4,0,0,0,0,0,0,1003.8,1017.6
2022-09-26T04:15:00+09:00,0.6,�k,1.2,�k�k��,16.9,95.5,0,0,0,0,0,0,1003.8,1017.6
2022-09-26T04:16:00+09:00,0.6,�k�k��,1.2,�k�k��,16.8,95.3,0,0,0,0,0,0,1003.8,1017.6
2022-09-26T04:17:00+09:00,0.6,�k�k��,1.2,�k�k��,16.9,95.5,0,0,0,0,0,0,1003.8,1017.6
2022-09-26T04:18:00+09:00,0.5,�k�k��,1.2,�k�k��,16.9,95.6,0,0,0,0,0,0,1003.8,1017.6
2022-09-26T04:19:00+09:00,0.5,�k��,1.2,�k�k��,16.8,95.6,0,0,0,0,0,0,1003.8,1017.6
2022-09-26T04:20:00+09:00,0.4,�k��,1.1,�k,16.8,95.8,0,0,0,0,0,0,1003.8,1017.6
2022-09-26T04:21:00+09:00,0.4,�k��,1.1,�k,16.7,95.8,0,0,0,0,0,0,1003.8,1017.6
2022-09-26T04:22:00+09:00,0.4,�k��,1,���k��,16.8,96,0,0,0,0,0,0,1003.8,1017.6
2022-09-26T04:23:00+09:00,0.3,�k��,1,���k��,16.7,96.1,0,0,0,0,0,0,1003.8,1017.6
2022-09-26T04:24:00+09:00,0.3,�k�k��,0.8,�k�k��,16.8,96.2,0,0,0,0,0,0,1003.8,1017.6
2022-09-26T04:25:00+09:00,0.3,�k�k��,0.8,�k�k��,17,96.4,0,0,0,0,0,0,1003.8,1017.6
2022-09-26T04:26:00+09:00,0.3,�k�k��,0.9,�k,16.9,96.5,0,0,0,0,0,0,1003.8,1017.6
2022-09-26T04:27:00+09:00,0.3,�k,0.9,�k,16.9,96.5,0,0,0,0,0,0,1003.9,1017.7
2022-09-26T04:28:00+09:00,0.3,�k,1,�k��,17,96.5,0,0,0,0,0,0,1003.9,1017.7
2022-09-26T04:29:00+09:00,0.4,�k,1,�k��,17.1,96.5,0,0,0,0,0,0,1003.9,1017.7
2022-09-26T04:30:00+09:00,0.4,�k�k��,1,�k��,16.9,96.4,0,0,0,0,0,0,1003.9,1017.7
2022-09-26T04:31:00+09:00,0.4,�k�k��,1,�k��,16.9,96.1,0,0,0,0,0,0,1003.9,1017.7
2022-09-26T04:32:00+09:00,0.4,�k�k��,1,�k��,16.9,96.1,0,0,0,0,0,0,1003.9,1017.7
2022-09-26T04:33:00+09:00,0.4,�k�k��,1,�k��,16.9,96.1,0,0,0,0,0,0,1003.8,1017.6
2022-09-26T04:34:00+09:00,0.3,�k�k��,1,�k��,16.9,96.1,0,0,0,0,0,0,1003.8,1017.6
2022-09-26T04:35:00+09:00,0.3,�k�k��,1,�k��,16.8,95.9,0,0,0,0,0,0,1003.8,1017.6
2022-09-26T04:36:00+09:00,0.3,�k�k��,1,�k��,16.9,96,0,0,0,0,0,0,1003.9,1017.7
2022-09-26T04:37:00+09:00,0.2,�É�,1,�k��,17.1,96.3,0,0,0,0,0,0,1003.9,1017.7
2022-09-26T04:38:00+09:00,0.2,�É�,0.8,�k�k��,17,96.2,0,0,0,0,0,0,1003.9,1017.7
2022-09-26T04:39:00+09:00,0.1,�É�,0.7,���k��,17,96.1,0,0,0,0,0,0,1003.9,1017.7
2022-09-26T04:40:00+09:00,0.1,�É�,0.5,�k�k��,16.9,96,0,0,0,0,0,0,1003.9,1017.7
2022-09-26T04:41:00+09:00,0.1,�É�,0.4,���k��,17,96.1,0,0,0,0,0,0,1003.9,1017.7
2022-09-26T04:42:00+09:00,0,�É�,0.3,�k,17,96.1,0,0,0,0,0,0,1003.9,1017.7
2022-09-26T04:43:00+09:00,0,�É�,0.3,�k,16.9,96,0,0,0,0,0,0,1003.9,1017.7
2022-09-26T04:44:00+09:00,0,�É�,0.2,�k��,16.9,95.9,0,0,0,0,0,0,1004,1017.8
2022-09-26T04:45:00+09:00,0,�É�,0.2,�k��,17,96.1,0,0,0,0,0,0,1004,1017.8
2022-09-26T04:46:00+09:00,0,�É�,0.4,���k��,16.9,96,0,0,0,0,0,0,1004,1017.8
2022-09-26T04:47:00+09:00,0.1,�É�,0.4,���k��,17,96,0,0,0,0,0,0,1004,1017.8
2022-09-26T04:48:00+09:00,0.1,�É�,0.4,���k��,16.9,95.9,0,0,0,0,0,0,1004,1017.8
2022-09-26T04:49:00+09:00,0.1,�É�,0.5,���k��,16.9,95.9,0,0,0,0,0,0,1004,1017.8
2022-09-26T04:50:00+09:00,0.2,�É�,0.6,���쐼,16.9,95.8,0,0,0,0,0,0,1004,1017.8
2022-09-26T04:51:00+09:00,0.2,�É�,0.9,��,16.9,95.9,0,0,0,0,0,0,1004,1017.8
2022-09-26T04:52:00+09:00,0.3,�k��,0.9,��,16.7,95.8,0,0,0,0,0,0,1004,1017.8
2022-09-26T04:53:00+09:00,0.4,�k��,0.9,��,16.8,95.8,0,0,0,0,0,0,1004,1017.8
2022-09-26T04:54:00+09:00,0.4,���k��,0.9,��,16.7,95.9,0,0,0,0,0,0,1004,1017.8
2022-09-26T04:55:00+09:00,0.5,���k��,1.1,���k��,16.8,96.1,0,0,0,0,0,0,1003.9,1017.7
2022-09-26T04:56:00+09:00,0.6,���k��,1.1,���k��,16.9,96.3,0,0,0,0,0,0,1004,1017.8
2022-09-26T04:57:00+09:00,0.7,���k��,1.3,��,16.9,96.2,0,0,0,0,0,0,1004,1017.8
2022-09-26T04:58:00+09:00,0.8,���k��,1.4,��,17,96.3,0,0,0,0,0,0,1004,1017.8
2022-09-26T04:59:00+09:00,0.9,��,1.4,��,17,96.2,0,0,0,0,0,0,1004,1017.8
2022-09-26T05:00:00+09:00,1,��,1.4,��,16.9,96,0,0,0,0,0,0,1004,1017.8
2022-09-26T05:01:00+09:00,1,��,1.4,��,16.8,95.8,0,0,0,0,0,0,1004,1017.8
2022-09-26T05:02:00+09:00,1,��,1.4,��,16.8,95.8,0,0,0,0,0,0,1004,1017.8
2022-09-26T05:03:00+09:00,1,��,1.4,��,16.7,95.7,0,0,0,0,0,0,1004,1017.8